Regional Weather Roundup
Issued by NWS

Home | Current Version | Previous Version | Graphics & Text | Print | Product List | Glossary On
Versions: 1 2 3 4 5 6 7 8 9 10 11 12 13 14 15 16 17 18 19 20 21 22 23 24 25 26 27 28 29 30 31 32 33 34 35 36 37 38 39 40 41 42 43 44 45 46 47 48 49 50
000
ASUS43 KLSX 261410
RWRMO

WEATHER SUMMARY FOR MISSOURI
NATIONAL WEATHER SERVICE SPRINGFIELD MO
800 AM CST SUN FEB 26 2017

NOTE: "FAIR" INDICATES FEW OR NO CLOUDS BELOW 12,000 FEET WITH NO
       SIGNIFICANT WEATHER AND/OR OBSTRUCTIONS TO VISIBILITY.
       CURRENT SKY AND/OR WEATHER CONDITIONS ARE NOT AVAILABLE FOR
       CHILLICOTHE AND FARMINGTON.

MOZ001>031-035>038-043-044-053-054-261500-
...NORTHERN AND WESTERN MISSOURI...

CITY           SKY/WX    TMP DP  RH WIND       PRES   REMARKS
KANSAS CTY INT CLOUDY    36  28  73 SW14      30.02R WCI  27
KANSAS C DTWN  FLURRIES  37  31  78 SW14      30.05R WCI  28
LEE`S SUMMIT   CLOUDY    38  26  62 SW12G21   30.05R
ST JOSEPH      MOSUNNY   32  23  69 S7        30.02R WCI  26
CHILLICOTHE      N/A     33  17  51 CALM      30.03R
KIRKSVILLE     CLOUDY    33  16  49 SW10      30.01R WCI  25

$$
MOZ066>068-077>081-088>096-101>105-261500-
...SOUTHWEST MISSOURI...

CITY           SKY/WX    TMP DP  RH WIND       PRES   REMARKS
SPRINGFIELD    CLOUDY    36  17  46 S18       30.05R WCI  26
JOPLIN         CLOUDY    37  20  50 SE8       30.05R
BRANSON        CLOUDY    32  16  51 CALM      30.09R

$$
MOZ032>034-039>042-045>050-055>058-069>072-261500-
...CENTRAL MISSOURI...

CITY           SKY/WX    TMP DP  RH WIND       PRES   REMARKS
COLUMBIA       CLOUDY    33  15  47 S12       30.05S WCI  24
JEFFERSON CITY CLOUDY    33  15  47 SE3       30.08S
ROLLA          CLOUDY    34  13  41 S13       30.06S WCI  25
SEDALIA        CLOUDY    38  16  40 SW15      30.05R WCI  29
WHITEMAN AFB   CLOUDY    38  17  41 SW13      30.04R
WARRENSBURG    CLOUDY    36  19  51 SW8       30.06R WCI  29
OSAGE BEACH    CLOUDY    33  16  49 S7        30.08R WCI  27

$$
MOZ051-052-059>065-261500-
...EAST CENTRAL MISSOURI...

CITY           SKY/WX    TMP DP  RH WIND       PRES   REMARKS
ST LOUIS INTL  CLOUDY    35  13  40 S12       30.12R WCI  27
SPIRIT OF STL  CLOUDY    33  12  41 S10       30.12R WCI  25
ST CHARLES     MOSUNNY   33  20  58 S5        30.12R WCI  29

$$
MOZ072>076-082>087-097>100-106>115-261500-
...SOUTH CENTRAL AND SOUTHEAST MISSOURI...

CITY           SKY/WX    TMP DP  RH WIND       PRES   REMARKS
CAPE GIRARDEAU MOSUNNY   32  21  64 SE9       30.19R WCI  24
FARMINGTON     PTSUNNY   29  18  63 S7        30.15R WCI  22
POPLAR BLUFF   CLOUDY    32  25  75 SE5       30.19R WCI  27
WEST PLAINS    MOSUNNY   32  15  49 SE7       30.11S WCI  26

$$



USA.gov is the U.S. government's official web portal to all federal, state and local government web resources and services.